Content
SEND FEEDBACK

Daily
Averages
Monthly
Summary
Canada

MONTREAL, QUEBEC


Home > North America > Canada > Quebec
Elevation: 118 feet     Latitude: 45 28N     Longitude: 073 45W

WEATHER
 
SELECT A DAY
Number of Records: 198,548;   Date Range: 1/1/95 - 8/27/14
 
SHARE

PRINT THIS DATA

[ ← Previous Day ]
WEATHER ALMANAC - MARCH 21, 2014
[ Next Day → ]
[ °C ]   °F
Weather ElementAverageHighLow
Temperature31.3 °F35.6 °F (4:00 pm)28 °F (8:00 am)
Dewpoint20.1 °F26.6 °F (1:00 am)15.8 °F (5:00 pm)
Humidity63.1 %86 % (3:00 am)40 % (8:00 pm)
Barometer29.85 in30.01 in (10:00 pm)29.64 in (1:00 am)
Wind Speed17.5 mph24.2 mph (3:00 am)
Wind Gust32.2 mph (2:00 am)
Weather ElementAverage
Visibility15.8 mi
Wind DirectionW (265.4 °)

Weather ElementTotal
Precipitation---
Heating Degree Days33.2 (Base 65)
Averaged from 28 records on March 21, 2014
WEATHER CONDITIONS BREAKOUT
WIND DIRECTION BREAKOUT
WEATHER BY HOUR - MARCH 21, 2014
[ °C ]   °F
Local TimeTemperatureDewpointHumidityBarometerVisibilityWind DirectionWind SpeedGust SpeedPrecipitationEventsConditions
1:00 AM32.0 °F26.6 °F80 %29.64 in6.0 miWSW (250°)19.6 mph26.5 mphSnowLight Snow
2:00 AM31.0 °F26.0 °F76 %29.66 in7.0 miWest (260°)23.0 mphSnowLight Snow
2:00 AM32.0 °F26.6 °F80 %29.66 in7.0 miWest (260°)21.9 mph32.2 mphSnowLight Snow
3:00 AM30.2 °F26.6 °F86 %29.68 in12.0 miWest (270°)24.2 mph31.1 mphSnowLight Snow
4:00 AM30.2 °F23.0 °F75 %29.70 in15.0 miWest (260°)19.6 mph28.8 mphSnowLight Snow
5:00 AM30.2 °F21.2 °F69 %29.73 in15.0 miWest (270°)16.1 mph26.5 mphSnowLight Snow
6:00 AM28.4 °F21.2 °F74 %29.75 in15.0 miWest (270°)17.3 mph23.0 mphSnowLight Snow
7:00 AM28.4 °F21.2 °F74 %29.78 in2.0 miWest (280°)17.3 mph24.2 mphSnowLight Snow
8:00 AM28.0 °F22.0 °F71 %29.81 in4.0 miWest (270°)13.8 mphSnowLight Snow
8:00 AM28.4 °F23.0 °F80 %29.81 in4.0 miWest (270°)11.5 mph20.7 mphSnowLight Snow
9:00 AM28.4 °F21.2 °F74 %29.83 in4.0 miWest (280°)15.0 mph26.5 mphSnowLight Snow
10:00 AM28.4 °F19.4 °F69 %29.85 in8.0 miWest (280°)17.3 mph28.8 mphSnowLight Snow
11:00 AM30.2 °F17.6 °F60 %29.86 in15.0 miWest (270°)19.6 mphSnowLight Snow
11:21 AM30.2 °F17.6 °F60 %29.87 in15.0 miWest (280°)19.6 mphOvercast
12:00 PM30.2 °F17.6 °F60 %29.87 in15.0 miWest (280°)21.9 mph28.8 mphOvercast
1:00 PM32.0 °F19.4 °F60 %29.88 in15.0 miWest (270°)21.9 mphMostly Cloudy
2:00 PM33.0 °F18.0 °F41 %29.90 in28.0 miWest (270°)17.3 mphPartly Cloudy
2:00 PM33.8 °F17.6 °F52 %29.89 in30.0 miWest (280°)20.7 mphMostly Cloudy
3:00 PM33.8 °F17.6 °F52 %29.90 in30.0 miWest (270°)20.7 mph27.6 mphPartly Cloudy
4:00 PM35.6 °F17.6 °F48 %29.91 in30.0 miWest (260°)23.0 mph29.9 mphPartly Cloudy
5:00 PM35.6 °F15.8 °F44 %29.92 in30.0 miWest (260°)20.7 mph28.8 mphPartly Cloudy
6:00 PM35.6 °F17.6 °F48 %29.94 in30.0 miWest (260°)19.6 mph27.6 mphPartly Cloudy
7:00 PM33.8 °F17.6 °F52 %29.96 in30.0 miWSW (250°)15.0 mph21.9 mphPartly Cloudy
8:00 PM33.0 °F18.0 °F40 %29.98 in15.0 miWSW (250°)13.8 mphClear
8:00 PM32.0 °F17.6 °F55 %29.98 in15.0 miWSW (250°)13.8 mphPartly Cloudy
9:00 PM32.0 °F17.6 °F55 %30.00 in15.0 miWest (260°)11.5 mph17.3 mphPartly Cloudy
10:00 PM30.2 °F19.4 °F64 %30.01 in15.0 miWest (260°)8.1 mphClear
11:00 PM28.4 °F19.4 °F69 %30.00 in15.0 miWSW (240°)5.8 mphClear
Hourly data recorded from CYUL, located miles away from Montreal, Quebec







STORIES FROM OUR PARTNERS